RH
73 80 79 78 81 82 79 78 66 68 70 70 70 73 77 85 87 87 89 87 86 83
64 65 66 63 62 62 60 46 48 50 49 51 51 57 65 78 81 81 84 87 87 86
54 50 47 43 39 39 39 39 42 43 44 44 44 44 46 56 58 62 69 67 76 81
35 34 34 35 36 36 38 37 39 40 42 43 44 44 48 50 48 50 54 57 61 63
34 34 34 34 34 34 36 36 37 38 40 41 44 47 49 52 52 53 55 56 60 63
32 33 33 34 34 34 36 38 39 40 44 46 49 51 52 53 53 55 60 62 63 63
33 33 34 34 35 36 38 41 42 43 45 48 49 50 53 53 61 67 64 66 66 65
33 33 35 38 38 38 41 41 43 43 45 47 46 42 54 65 70 75 72 68 64 64
33 34 38 39 40 40 42 42 42 44 46 49 40 52 60 60 69 73 74 74 69 68
32 36 40 38 39 42 44 44 44 46 46 49 49 52 54 60 60 70 76 79 76 73
36 37 40 42 44 45 46 47 48 48 50 54 50 54 55 57 61 72 77 81 75 65
36 41 44 47 49 50 51 50 50 51 53 56 55 57 58 58 66 72 77 71 69 60
42 45 48 50 49 49 49 52 56 51 54 58 54 57 58 59 59 72 74 69 64 67
45 47 46 47 48 52 53 52 55 54 54 52 50 49 55 56 56 70 70 63 64 66
Wind_Speed
2 0 1 2 2 2 2 3 4 4 5 5 5 5 4 3 4 5 5 7 6 5
4 5 4 4 4 3 4 3 5 5 5 6 6 6 6 3 5 5 5 6 6 5
4 4 3 4 4 4 4 3 4 4 5 6 6 6 5 5 5 6 4 5 6 5
3 2 3 4 4 3 4 4 4 5 5 6 6 6 6 6 7 7 7 6 6 7
3 2 3 4 3 3 4 4 4 5 5 6 6 6 6 7 6 7 7 7 7 7
3 3 2 2 2 3 3 4 5 5 6 6 6 6 6 6 7 6 7 8 8 8
4 3 2 1 2 3 3 4 5 5 6 6 6 6 6 6 6 6 7 8 9 9
2 2 2 3 3 4 4 5 6 6 6 6 6 6 6 5 6 6 8 9 10 10
2 1 2 3 4 5 6 6 6 6 6 7 7 14 16 13 6 6 8 9 10 10
1 1 4 4 5 6 7 6 6 6 6 7 7 17 19 19 8 7 8 9 9 8
3 3 4 5 6 6 5 6 6 6 7 6 8 18 20 20 9 7 7 7 10 12
2 4 5 6 6 6 5 5 5 6 7 7 9 17 20 17 7 7 7 8 9 12
4 5 6 6 7 4 4 6 5 6 7 12 12 17 18 14 6 8 8 8 9 17
6 6 6 6 4 5 7 7 7 7 8 9 9 10 17 18 9 6 8 9 9 8
Wind_Direction
76 63 74 50 33 9 36 25 14 353 338 326 322 314 304 285 265 252 251 254 247 248
76 56 53 41 44 36 38 12 17 352 349 340 335 328 321 303 288 281 271 264 259 248
81 67 59 71 50 39 1 11 354 346 339 327 321 319 324 311 301 301 291 284 284 275
105 85 71 75 46 29 3 3 353 342 332 326 329 330 330 318 307 310 308 305 294 289
115 71 67 63 34 24 358 349 334 331 331 327 326 326 320 313 311 309 306 300 301 290
143 96 72 68 19 7 349 332 331 341 330 322 314 308 299 294 296 311 306 299 297 295
140 127 107 52 16 353 348 327 314 305 297 293 289 284 284 282 305 294 293 294 291 289
113 108 44 12 328 304 298 285 283 289 292 287 289 287 286 282 281 287 293 293 291 292
147 64 300 289 296 298 292 290 287 289 286 290 290 294 302 309 295 285 283 290 295 293
158 288 287 291 300 288 284 279 285 285 282 279 282 298 305 308 302 290 283 281 283 287
221 260 282 284 276 275 277 282 276 275 277 279 283 295 301 305 296 276 267 262 272 274
253 279 276 271 273 272 275 272 270 275 276 276 280 286 292 299 294 281 276 278 278 291
280 269 264 260 267 263 266 269 266 270 271 271 278 278 286 298 289 289 289 283 283 289
257 252 255 264 266 271 269 264 266 267 267 265 265 276 289 296 297 279 284 293 297 286